Time,TemperatureF,DewpointF,PressureIn,WindDirection,WindDirectionDegrees,WindSpeedMPH,WindSpeedGustMPH,Humidity,HourlyPrecipIn,Conditions,Clouds,dailyrainin,SoftwareType,DateUTC
2013-03-04 00:00:00,25.6,20.3,29.89,NNW,339,2.0,9.0,80,0.00,,---,0.00,VWS V14.01,2013-03-04 05:00:00,
2013-03-04 00:01:00,25.6,20.3,29.89,NNW,339,1.0,9.0,80,0.00,,---,0.00,VWS V14.01,2013-03-04 05:01:00,
2013-03-04 00:06:00,25.6,20.3,29.89,WNW,294,1.0,9.0,80,0.00,,---,0.00,VWS V14.01,2013-03-04 05:06:00,
2013-03-04 00:11:00,25.5,20.2,29.89,North,9,1.0,9.0,80,0.00,,---,0.00,VWS V14.01,2013-03-04 05:11:00,
2013-03-04 00:16:00,25.5,19.9,29.89,West,280,0.0,12.0,79,0.00,,---,0.00,VWS V14.01,2013-03-04 05:16:00,
2013-03-04 00:21:00,25.5,19.9,29.89,NNW,333,1.0,12.0,79,0.00,,---,0.00,VWS V14.01,2013-03-04 05:21:00,
2013-03-04 00:26:00,25.4,19.8,29.89,NW,324,1.0,5.0,79,0.00,,---,0.00,VWS V14.01,2013-03-04 05:26:00,
2013-03-04 00:31:00,25.4,20.1,29.89,WNW,286,2.0,5.0,80,0.00,,---,0.00,VWS V14.01,2013-03-04 05:31:00,
2013-03-04 00:36:00,25.4,19.8,29.90,WNW,298,4.0,13.0,79,0.00,,---,0.00,VWS V14.01,2013-03-04 05:36:00,
2013-03-04 00:41:00,25.3,19.4,29.90,NW,304,2.0,13.0,78,0.00,,---,0.00,VWS V14.01,2013-03-04 05:41:00,
2013-03-04 00:46:00,25.2,19.3,29.90,West,278,5.0,13.0,78,0.00,,---,0.00,VWS V14.01,2013-03-04 05:46:00,
2013-03-04 00:51:00,25.2,19.3,29.90,North,360,5.0,13.0,78,0.00,,---,0.00,VWS V14.01,2013-03-04 05:51:00,
2013-03-04 00:56:00,25.1,19.5,29.90,NW,319,8.0,8.0,79,0.00,,---,0.00,VWS V14.01,2013-03-04 05:56:00,
2013-03-04 01:01:00,25.1,19.2,29.90,WNW,294,2.0,8.0,78,0.00,,---,0.00,VWS V14.01,2013-03-04 06:01:00,
2013-03-04 01:06:00,25.1,19.2,29.90,NW,304,0.0,10.0,78,0.00,,---,0.00,VWS V14.01,2013-03-04 06:06:00,
2013-03-04 01:11:00,25.1,19.5,29.90,WNW,290,0.0,10.0,79,0.00,,---,0.00,VWS V14.01,2013-03-04 06:11:00,
2013-03-04 01:16:00,25.0,19.4,29.90,WNW,301,0.0,10.0,79,0.00,,---,0.00,VWS V14.01,2013-03-04 06:16:00,
2013-03-04 01:21:00,25.0,19.4,29.90,WSW,258,6.0,10.0,79,0.00,,---,0.00,VWS V14.01,2013-03-04 06:21:00,
2013-03-04 01:26:00,25.0,19.4,29.91,WNW,292,1.0,6.0,79,0.00,,---,0.00,VWS V14.01,2013-03-04 06:26:00,
2013-03-04 01:31:00,25.0,19.4,29.91,NNW,340,0.0,10.0,79,0.00,,---,0.00,VWS V14.01,2013-03-04 06:31:00,
2013-03-04 01:36:00,24.9,19.3,29.91,NNW,345,3.0,10.0,79,0.00,,---,0.00,VWS V14.01,2013-03-04 06:36:00,
2013-03-04 01:41:00,24.9,19.3,29.91,NW,319,0.0,10.0,79,0.00,,---,0.00,VWS V14.01,2013-03-04 06:41:00,
2013-03-04 01:46:00,24.9,19.3,29.91,WNW,294,1.0,10.0,79,0.00,,---,0.00,VWS V14.01,2013-03-04 06:46:00,
2013-03-04 01:51:00,24.9,19.3,29.91,West,271,6.0,10.0,79,0.00,,---,0.00,VWS V14.01,2013-03-04 06:51:00,
2013-03-04 01:56:00,24.8,19.2,29.91,NNW,336,3.0,6.0,79,0.00,,---,0.00,VWS V14.01,2013-03-04 06:56:00,
2013-03-04 02:01:00,24.8,19.2,29.91,WNW,292,1.0,6.0,79,0.00,,---,0.00,VWS V14.01,2013-03-04 07:01:00,
2013-03-04 02:06:00,24.8,19.2,29.91,West,270,2.0,13.0,79,0.00,,---,0.00,VWS V14.01,2013-03-04 07:06:00,
2013-03-04 02:11:00,24.8,19.2,29.91,WSW,239,4.0,13.0,79,0.00,,---,0.00,VWS V14.01,2013-03-04 07:11:00,
2013-03-04 02:16:00,24.8,19.2,29.91,NNW,333,1.0,13.0,79,0.00,,---,0.00,VWS V14.01,2013-03-04 07:16:00,
2013-03-04 02:21:00,24.8,19.2,29.91,WNW,291,1.0,13.0,79,0.00,,---,0.00,VWS V14.01,2013-03-04 07:21:00,
2013-03-04 02:26:00,24.8,19.5,29.91,South,183,4.0,6.0,80,0.00,,---,0.00,VWS V14.01,2013-03-04 07:26:00,
2013-03-04 02:31:00,24.8,19.5,29.91,NW,323,1.0,7.0,80,0.00,,---,0.00,VWS V14.01,2013-03-04 07:31:00,
2013-03-04 02:36:00,24.8,19.5,29.91,NW,306,1.0,7.0,80,0.00,,---,0.00,VWS V14.01,2013-03-04 07:36:00,
2013-03-04 02:41:00,24.8,19.5,29.91,WNW,300,3.0,7.0,80,0.00,,---,0.00,VWS V14.01,2013-03-04 07:41:00,
2013-03-04 02:46:00,24.8,19.2,29.91,NW,311,3.0,8.0,79,0.00,,---,0.00,VWS V14.01,2013-03-04 07:46:00,
2013-03-04 02:51:00,24.8,19.2,29.91,WNW,292,7.0,12.0,79,0.00,,---,0.00,VWS V14.01,2013-03-04 07:51:00,
2013-03-04 02:56:00,24.8,19.2,29.91,NW,311,0.0,2.0,79,0.00,,---,0.00,VWS V14.01,2013-03-04 07:56:00,
2013-03-04 03:01:00,24.9,19.3,29.91,West,281,0.0,4.0,79,0.00,,---,0.00,VWS V14.01,2013-03-04 08:01:00,
2013-03-04 03:06:00,24.8,19.2,29.91,NNW,338,4.0,6.0,79,0.00,,---,0.00,VWS V14.01,2013-03-04 08:06:00,
2013-03-04 03:11:00,24.9,19.3,29.91,NW,309,0.0,6.0,79,0.00,,---,0.00,VWS V14.01,2013-03-04 08:11:00,
2013-03-04 03:16:00,24.8,19.2,29.91,West,264,4.0,10.0,79,0.00,,---,0.00,VWS V14.01,2013-03-04 08:16:00,
2013-03-04 03:21:00,24.9,19.3,29.91,West,277,0.0,10.0,79,0.00,,---,0.00,VWS V14.01,2013-03-04 08:21:00,
2013-03-04 03:26:00,24.9,19.3,29.91,WNW,288,0.0,5.0,79,0.00,,---,0.00,VWS V14.01,2013-03-04 08:26:00,
2013-03-04 03:31:00,24.9,19.3,29.91,WNW,288,0.0,6.0,79,0.00,,---,0.00,VWS V14.01,2013-03-04 08:31:00,
2013-03-04 03:36:00,24.8,19.2,29.91,West,265,3.0,7.0,79,0.00,,---,0.00,VWS V14.01,2013-03-04 08:36:00,
2013-03-04 03:41:00,24.8,18.9,29.92,NW,324,2.0,8.0,78,0.00,,---,0.00,VWS V14.01,2013-03-04 08:41:00,
2013-03-04 03:46:00,24.7,18.8,29.92,SSW,200,1.0,8.0,78,0.00,,---,0.00,VWS V14.01,2013-03-04 08:46:00,
2013-03-04 03:51:00,24.7,18.8,29.92,West,275,0.0,8.0,78,0.00,,---,0.00,VWS V14.01,2013-03-04 08:51:00,
2013-03-04 03:56:00,24.7,19.1,29.92,WNW,283,0.0,5.0,79,0.00,,---,0.00,VWS V14.01,2013-03-04 08:56:00,
2013-03-04 04:01:00,24.6,19.0,29.92,NNW,333,5.0,8.0,79,0.00,,---,0.00,VWS V14.01,2013-03-04 09:01:00,
2013-03-04 04:06:00,24.5,18.9,29.92,WNW,300,5.0,8.0,79,0.00,,---,0.00,VWS V14.01,2013-03-04 09:06:00,
2013-03-04 04:11:00,24.4,18.8,29.92,NNW,329,3.0,8.0,79,0.00,,---,0.00,VWS V14.01,2013-03-04 09:11:00,
2013-03-04 04:16:00,24.4,18.8,29.92,WNW,301,2.0,8.0,79,0.00,,---,0.00,VWS V14.01,2013-03-04 09:16:00,
2013-03-04 04:21:00,24.4,18.8,29.92,West,267,0.0,9.0,79,0.00,,---,0.00,VWS V14.01,2013-03-04 09:21:00,
2013-03-04 04:26:00,24.3,19.0,29.93,NNW,340,0.0,4.0,80,0.00,,---,0.00,VWS V14.01,2013-03-04 09:26:00,
2013-03-04 04:31:00,24.3,19.0,29.93,NW,312,2.0,7.0,80,0.00,,---,0.00,VWS V14.01,2013-03-04 09:31:00,
2013-03-04 04:36:00,24.3,19.3,29.93,NNW,329,0.0,7.0,81,0.00,,---,0.00,VWS V14.01,2013-03-04 09:36:00,
2013-03-04 04:41:00,24.2,19.2,29.93,NNW,329,0.0,7.0,81,0.00,,---,0.00,VWS V14.01,2013-03-04 09:41:00,
2013-03-04 04:46:00,24.2,19.2,29.93,NW,326,4.0,10.0,81,0.00,,---,0.00,VWS V14.01,2013-03-04 09:46:00,
2013-03-04 04:51:00,24.2,18.9,29.93,WNW,289,2.0,10.0,80,0.00,,---,0.00,VWS V14.01,2013-03-04 09:51:00,
2013-03-04 04:56:00,24.2,18.9,29.93,NNW,348,9.0,10.0,80,0.00,,---,0.00,VWS V14.01,2013-03-04 09:56:00,
2013-03-04 05:01:00,24.3,19.0,29.93,NNW,333,2.0,10.0,80,0.00,,---,0.00,VWS V14.01,2013-03-04 10:01:00,
2013-03-04 05:06:00,24.3,19.0,29.94,West,271,3.0,10.0,80,0.00,,---,0.00,VWS V14.01,2013-03-04 10:06:00,
2013-03-04 05:11:00,24.3,19.0,29.94,SW,232,3.0,10.0,80,0.00,,---,0.00,VWS V14.01,2013-03-04 10:11:00,
2013-03-04 05:16:00,24.3,19.0,29.94,North,355,1.0,10.0,80,0.00,,---,0.00,VWS V14.01,2013-03-04 10:16:00,
2013-03-04 05:21:00,24.3,19.0,29.94,West,272,4.0,10.0,80,0.00,,---,0.00,VWS V14.01,2013-03-04 10:21:00,
2013-03-04 05:26:00,24.3,19.0,29.94,North,360,2.0,9.0,80,0.00,,---,0.00,VWS V14.01,2013-03-04 10:26:00,
2013-03-04 05:31:00,24.3,19.0,29.94,NNW,342,1.0,9.0,80,0.00,,---,0.00,VWS V14.01,2013-03-04 10:31:00,
2013-03-04 05:36:00,24.3,18.7,29.95,NNW,330,5.0,9.0,79,0.00,,---,0.00,VWS V14.01,2013-03-04 10:36:00,
2013-03-04 05:41:00,24.2,18.6,29.95,NW,305,5.0,9.0,79,0.00,,---,0.00,VWS V14.01,2013-03-04 10:41:00,
2013-03-04 05:46:00,24.3,18.7,29.95,NW,326,7.0,9.0,79,0.00,,---,0.00,VWS V14.01,2013-03-04 10:46:00,
2013-03-04 05:51:00,24.3,18.7,29.95,West,273,0.0,9.0,79,0.00,,---,0.00,VWS V14.01,2013-03-04 10:51:00,
2013-03-04 05:56:00,24.3,18.7,29.95,NNW,335,2.0,6.0,79,0.00,,---,0.00,VWS V14.01,2013-03-04 10:56:00,
2013-03-04 06:01:00,24.2,18.6,29.95,NNW,331,3.0,6.0,79,0.00,,---,0.00,VWS V14.01,2013-03-04 11:01:00,
2013-03-04 06:06:00,24.2,18.6,29.95,NNW,341,4.0,6.0,79,0.00,,---,0.00,VWS V14.01,2013-03-04 11:06:00,
2013-03-04 06:11:00,24.2,18.9,29.95,West,271,0.0,6.0,80,0.00,,---,0.00,VWS V14.01,2013-03-04 11:11:00,
2013-03-04 06:16:00,24.1,18.8,29.95,WNW,300,3.0,6.0,80,0.00,,---,0.00,VWS V14.01,2013-03-04 11:16:00,
2013-03-04 06:21:00,24.1,18.8,29.95,West,275,3.0,7.0,80,0.00,,---,0.00,VWS V14.01,2013-03-04 11:21:00,
2013-03-04 06:26:00,24.0,19.0,29.95,NW,305,3.0,8.0,81,0.00,,---,0.00,VWS V14.01,2013-03-04 11:26:00,
2013-03-04 06:31:00,24.0,18.7,29.95,NW,308,0.0,8.0,80,0.00,,---,0.00,VWS V14.01,2013-03-04 11:31:00,
2013-03-04 06:36:00,24.0,18.7,29.95,WNW,300,0.0,8.0,80,0.00,,---,0.00,VWS V14.01,2013-03-04 11:36:00,
2013-03-04 06:41:00,24.0,18.7,29.95,WNW,300,3.0,8.0,80,0.00,,---,0.00,VWS V14.01,2013-03-04 11:41:00,
2013-03-04 06:46:00,24.0,19.0,29.95,WNW,300,0.0,8.0,81,0.00,,---,0.00,VWS V14.01,2013-03-04 11:46:00,
2013-03-04 06:51:00,24.0,18.7,29.95,WNW,298,4.0,8.0,80,0.00,,---,0.00,VWS V14.01,2013-03-04 11:51:00,
2013-03-04 06:56:00,24.1,18.8,29.95,WNW,290,0.0,8.0,80,0.00,,---,0.00,VWS V14.01,2013-03-04 11:56:00,
2013-03-04 07:01:00,24.1,18.8,29.95,WNW,302,0.0,8.0,80,0.00,,---,0.00,VWS V14.01,2013-03-04 12:01:00,
2013-03-04 07:06:00,24.1,18.8,29.95,West,263,5.0,14.0,80,0.00,,---,0.00,VWS V14.01,2013-03-04 12:06:00,
2013-03-04 07:11:00,24.2,18.6,29.95,NW,318,3.0,14.0,79,0.00,,---,0.00,VWS V14.01,2013-03-04 12:11:00,
2013-03-04 07:16:00,24.2,18.6,29.95,NNW,329,0.0,14.0,79,0.00,,---,0.00,VWS V14.01,2013-03-04 12:16:00,
2013-03-04 07:21:00,24.2,18.6,29.96,NW,312,0.0,14.0,79,0.00,,---,0.00,VWS V14.01,2013-03-04 12:21:00,
2013-03-04 07:26:00,24.2,18.6,29.96,WNW,300,2.0,6.0,79,0.00,,---,0.00,VWS V14.01,2013-03-04 12:26:00,
2013-03-04 07:31:00,24.2,18.6,29.95,North,350,2.0,10.0,79,0.00,,---,0.00,VWS V14.01,2013-03-04 12:31:00,
2013-03-04 07:36:00,24.2,18.6,29.96,WSW,251,1.0,10.0,79,0.00,,---,0.00,VWS V14.01,2013-03-04 12:36:00,
2013-03-04 07:41:00,24.2,18.6,29.96,NE,40,2.0,10.0,79,0.00,,---,0.00,VWS V14.01,2013-03-04 12:41:00,
2013-03-04 07:46:00,24.2,18.6,29.96,NNW,331,4.0,10.0,79,0.00,,---,0.00,VWS V14.01,2013-03-04 12:46:00,
2013-03-04 07:51:00,24.3,18.7,29.96,WNW,300,4.0,10.0,79,0.00,,---,0.00,VWS V14.01,2013-03-04 12:51:00,
2013-03-04 07:56:00,24.3,18.4,29.97,WNW,293,1.0,5.0,78,0.00,,---,0.00,VWS V14.01,2013-03-04 12:56:00,
2013-03-04 08:01:00,24.3,18.1,29.97,West,267,14.0,14.0,77,0.00,,---,0.00,VWS V14.01,2013-03-04 13:01:00,
2013-03-04 08:06:00,24.3,18.1,29.97,NW,305,8.0,17.0,77,0.00,,---,0.00,VWS V14.01,2013-03-04 13:06:00,
2013-03-04 08:11:00,24.4,18.2,29.96,NW,315,2.0,17.0,77,0.00,,---,0.00,VWS V14.01,2013-03-04 13:11:00,
2013-03-04 08:16:00,24.5,18.0,29.97,NW,325,4.0,17.0,76,0.00,,---,0.00,VWS V14.01,2013-03-04 13:16:00,
2013-03-04 08:21:00,24.6,17.8,29.97,West,279,1.0,17.0,75,0.00,,---,0.00,VWS V14.01,2013-03-04 13:21:00,
2013-03-04 08:26:00,24.7,17.6,29.97,SW,234,5.0,10.0,74,0.00,,---,0.00,VWS V14.01,2013-03-04 13:26:00,
2013-03-04 08:31:00,24.6,17.5,29.96,West,277,1.0,11.0,74,0.00,,---,0.00,VWS V14.01,2013-03-04 13:31:00,
2013-03-04 08:36:00,24.7,17.9,29.96,WNW,297,11.0,14.0,75,0.00,,---,0.00,VWS V14.01,2013-03-04 13:36:00,
2013-03-04 08:41:00,24.7,17.9,29.96,West,271,2.0,14.0,75,0.00,,---,0.00,VWS V14.01,2013-03-04 13:41:00,
2013-03-04 08:46:00,24.8,18.3,29.96,WSW,252,3.0,14.0,76,0.00,,---,0.00,VWS V14.01,2013-03-04 13:46:00,
2013-03-04 08:51:00,24.9,18.4,29.96,West,261,1.0,14.0,76,0.00,,---,0.00,VWS V14.01,2013-03-04 13:51:00,
2013-03-04 08:56:00,25.2,19.0,29.96,SW,219,7.0,7.0,77,0.00,,---,0.00,VWS V14.01,2013-03-04 13:56:00,
2013-03-04 09:01:00,25.2,18.4,29.96,SW,222,3.0,8.0,75,0.00,,---,0.00,VWS V14.01,2013-03-04 14:01:00,
2013-03-04 09:06:00,25.3,18.5,29.96,NW,305,3.0,9.0,75,0.00,,---,0.00,VWS V14.01,2013-03-04 14:06:00,
2013-03-04 09:11:00,25.4,18.9,29.96,NNW,330,0.0,9.0,76,0.00,,---,0.00,VWS V14.01,2013-03-04 14:11:00,
2013-03-04 09:16:00,25.7,19.2,29.96,NW,325,0.0,9.0,76,0.00,,---,0.00,VWS V14.01,2013-03-04 14:16:00,
2013-03-04 09:21:00,25.8,19.0,29.96,WNW,294,3.0,10.0,75,0.00,,---,0.00,VWS V14.01,2013-03-04 14:21:00,
2013-03-04 09:26:00,25.9,18.8,29.96,WNW,297,3.0,10.0,74,0.00,,---,0.00,VWS V14.01,2013-03-04 14:26:00,
2013-03-04 09:31:00,26.2,19.1,29.96,WNW,294,7.0,14.0,74,0.00,,---,0.00,VWS V14.01,2013-03-04 14:31:00,
2013-03-04 09:36:00,26.5,19.0,29.96,NW,304,2.0,14.0,73,0.00,,---,0.00,VWS V14.01,2013-03-04 14:36:00,
2013-03-04 09:41:00,26.6,18.8,29.96,NW,304,1.0,14.0,72,0.00,,---,0.00,VWS V14.01,2013-03-04 14:41:00,
2013-03-04 09:46:00,26.8,19.0,29.96,WNW,298,0.0,14.0,72,0.00,,---,0.00,VWS V14.01,2013-03-04 14:46:00,
2013-03-04 09:51:00,27.1,19.3,29.96,West,275,3.0,14.0,72,0.00,,---,0.00,VWS V14.01,2013-03-04 14:51:00,
2013-03-04 09:56:00,27.1,19.3,29.96,SW,236,14.0,14.0,72,0.00,,---,0.00,VWS V14.01,2013-03-04 14:56:00,
2013-03-04 10:01:00,27.1,19.3,29.97,NW,304,2.0,15.0,72,0.00,,---,0.00,VWS V14.01,2013-03-04 15:01:00,
2013-03-04 10:06:00,27.2,19.1,29.97,North,355,0.0,15.0,71,0.00,,---,0.00,VWS V14.01,2013-03-04 15:06:00,
2013-03-04 10:11:00,27.3,19.1,29.97,NNW,346,7.0,15.0,71,0.00,,---,0.00,VWS V14.01,2013-03-04 15:11:00,
2013-03-04 10:16:00,27.2,19.1,29.97,WSW,257,1.0,15.0,71,0.00,,---,0.00,VWS V14.01,2013-03-04 15:16:00,
2013-03-04 10:21:00,27.4,19.2,29.97,West,269,6.0,18.0,71,0.00,,---,0.00,VWS V14.01,2013-03-04 15:21:00,
2013-03-04 10:26:00,27.2,19.1,29.97,West,265,1.0,8.0,71,0.00,,---,0.00,VWS V14.01,2013-03-04 15:26:00,
2013-03-04 10:31:00,27.2,19.1,29.96,NNW,333,0.0,8.0,71,0.00,,---,0.00,VWS V14.01,2013-03-04 15:31:00,
2013-03-04 10:36:00,27.2,19.1,29.97,WNW,300,8.0,17.0,71,0.00,,---,0.00,VWS V14.01,2013-03-04 15:36:00,
2013-03-04 10:41:00,27.4,19.6,29.97,NW,316,2.0,17.0,72,0.00,,---,0.00,VWS V14.01,2013-03-04 15:41:00,
2013-03-04 10:46:00,27.5,19.4,29.97,NW,317,1.0,17.0,71,0.00,,---,0.00,VWS V14.01,2013-03-04 15:46:00,
2013-03-04 10:51:00,27.6,19.8,29.97,WSW,248,1.0,17.0,72,0.00,,---,0.00,VWS V14.01,2013-03-04 15:51:00,
2013-03-04 10:56:00,27.5,19.7,29.97,West,267,3.0,9.0,72,0.00,,---,0.00,VWS V14.01,2013-03-04 15:56:00,
2013-03-04 11:01:00,27.7,19.5,29.96,West,273,0.0,10.0,71,0.00,,---,0.00,VWS V14.01,2013-03-04 16:01:00,
2013-03-04 11:06:00,27.8,19.6,29.97,West,259,6.0,12.0,71,0.00,,---,0.00,VWS V14.01,2013-03-04 16:06:00,
2013-03-04 11:11:00,28.0,19.8,29.97,NNW,327,8.0,12.0,71,0.00,,---,0.00,VWS V14.01,2013-03-04 16:11:00,
2013-03-04 11:16:00,27.9,19.1,29.96,NNW,346,5.0,14.0,69,0.00,,---,0.00,VWS V14.01,2013-03-04 16:16:00,
2013-03-04 11:21:00,27.9,19.4,29.96,WNW,303,3.0,14.0,70,0.00,,---,0.00,VWS V14.01,2013-03-04 16:21:00,
2013-03-04 11:26:00,28.3,19.8,29.96,NNW,343,1.0,7.0,70,0.00,,---,0.00,VWS V14.01,2013-03-04 16:26:00,
2013-03-04 11:31:00,28.5,19.6,29.96,West,277,4.0,11.0,69,0.00,,---,0.00,VWS V14.01,2013-03-04 16:31:00,
2013-03-04 11:36:00,28.6,19.4,29.96,West,281,3.0,11.0,68,0.00,,---,0.00,VWS V14.01,2013-03-04 16:36:00,
2013-03-04 11:41:00,28.7,19.8,29.96,West,265,3.0,12.0,69,0.00,,---,0.00,VWS V14.01,2013-03-04 16:41:00,
2013-03-04 11:46:00,28.7,19.8,29.97,WNW,295,1.0,12.0,69,0.00,,---,0.00,VWS V14.01,2013-03-04 16:46:00,
2013-03-04 11:51:00,28.5,19.3,29.97,WSW,256,5.0,12.0,68,0.00,,---,0.00,VWS V14.01,2013-03-04 16:51:00,
2013-03-04 11:56:00,28.3,19.1,29.97,WNW,290,0.0,14.0,68,0.00,,---,0.00,VWS V14.01,2013-03-04 16:56:00,
2013-03-04 12:01:00,28.3,19.5,29.97,WSW,244,1.0,14.0,69,0.00,,---,0.00,VWS V14.01,2013-03-04 17:01:00,
2013-03-04 12:06:00,28.6,19.7,29.97,WNW,300,5.0,14.0,69,0.00,,---,0.00,VWS V14.01,2013-03-04 17:06:00,
2013-03-04 12:11:00,28.4,19.5,29.97,WSW,248,6.0,15.0,69,0.00,,---,0.00,VWS V14.01,2013-03-04 17:11:00,
2013-03-04 12:16:00,28.5,19.6,29.97,NW,319,0.0,15.0,69,0.00,,---,0.00,VWS V14.01,2013-03-04 17:16:00,
2013-03-04 12:21:00,28.9,19.7,29.97,NNE,13,5.0,15.0,68,0.00,,---,0.00,VWS V14.01,2013-03-04 17:21:00,
2013-03-04 12:26:00,29.2,20.3,29.97,WNW,298,2.0,7.0,69,0.00,,---,0.00,VWS V14.01,2013-03-04 17:26:00,
2013-03-04 12:31:00,29.2,19.6,29.96,NE,48,2.0,13.0,67,0.00,,---,0.00,VWS V14.01,2013-03-04 17:31:00,
2013-03-04 12:36:00,29.1,19.5,29.96,NW,308,2.0,13.0,67,0.00,,---,0.00,VWS V14.01,2013-03-04 17:36:00,
2013-03-04 12:41:00,29.2,19.6,29.96,NNE,16,3.0,13.0,67,0.00,,---,0.00,VWS V14.01,2013-03-04 17:41:00,
2013-03-04 12:46:00,29.6,20.4,29.96,WNW,300,4.0,13.0,68,0.00,,---,0.00,VWS V14.01,2013-03-04 17:46:00,
2013-03-04 12:52:00,29.7,20.5,29.96,WSW,254,6.0,14.0,68,0.00,,---,0.00,VWS V14.01,2013-03-04 17:52:00,
2013-03-04 12:57:00,29.7,20.1,29.96,NNW,342,5.0,9.0,67,0.00,,---,0.00,VWS V14.01,2013-03-04 17:57:00,
2013-03-04 13:02:00,29.8,20.2,29.96,West,281,2.0,9.0,67,0.00,,---,0.00,VWS V14.01,2013-03-04 18:02:00,
2013-03-04 13:07:00,29.9,20.6,29.95,WNW,298,3.0,9.0,68,0.00,,---,0.00,VWS V14.01,2013-03-04 18:07:00,
2013-03-04 13:12:00,30.1,20.1,29.95,WNW,291,3.0,9.0,66,0.00,,---,0.00,VWS V14.01,2013-03-04 18:12:00,
2013-03-04 13:17:00,30.4,20.4,29.95,West,265,1.0,11.0,66,0.00,,---,0.00,VWS V14.01,2013-03-04 18:17:00,
2013-03-04 13:22:00,30.6,20.6,29.95,WNW,290,3.0,11.0,66,0.00,,---,0.00,VWS V14.01,2013-03-04 18:22:00,
2013-03-04 13:27:00,30.6,20.6,29.95,NNW,333,5.0,8.0,66,0.00,,---,0.00,VWS V14.01,2013-03-04 18:27:00,
2013-03-04 13:29:00,30.6,21.0,29.95,NW,313,7.0,12.0,67,0.00,,---,0.00,VWS V14.01,2013-03-04 18:29:00,
2013-03-04 13:30:00,30.6,21.0,29.95,NNE,16,3.0,12.0,67,0.00,,---,0.00,VWS V14.01,2013-03-04 18:30:00,
2013-03-04 13:35:00,30.6,20.6,29.95,West,263,0.0,12.0,66,0.00,,---,0.00,VWS V14.01,2013-03-04 18:35:00,
2013-03-04 13:40:00,30.8,21.1,29.95,WSW,254,5.0,12.0,67,0.01,,---,0.01,VWS V14.01,2013-03-04 18:40:00,
2013-03-04 13:45:00,31.0,21.0,29.95,NNW,333,7.0,12.0,66,0.01,,---,0.01,VWS V14.01,2013-03-04 18:45:00,
2013-03-04 13:50:00,30.9,20.9,29.95,NW,310,1.0,12.0,66,0.01,,---,0.01,VWS V14.01,2013-03-04 18:50:00,
2013-03-04 13:55:00,31.1,21.1,29.95,NW,309,1.0,1.0,66,0.01,,---,0.01,VWS V14.01,2013-03-04 18:55:00,
2013-03-04 14:00:00,31.0,21.0,29.95,West,275,5.0,11.0,66,0.01,,---,0.01,VWS V14.01,2013-03-04 19:00:00,
2013-03-04 14:05:00,30.9,20.9,29.95,NW,323,3.0,12.0,66,0.01,,---,0.01,VWS V14.01,2013-03-04 19:05:00,
2013-03-04 14:10:00,30.9,20.9,29.95,WSW,252,1.0,12.0,66,0.01,,---,0.01,VWS V14.01,2013-03-04 19:10:00,
2013-03-04 14:15:00,31.0,21.0,29.95,West,271,2.0,12.0,66,0.01,,---,0.01,VWS V14.01,2013-03-04 19:15:00,
2013-03-04 14:20:00,30.7,20.7,29.96,NW,315,6.0,12.0,66,0.01,,---,0.01,VWS V14.01,2013-03-04 19:20:00,
2013-03-04 14:25:00,30.5,20.5,29.95,WNW,291,3.0,8.0,66,0.01,,---,0.01,VWS V14.01,2013-03-04 19:25:00,
2013-03-04 14:30:00,30.3,20.3,29.96,WNW,292,1.0,11.0,66,0.01,,---,0.01,VWS V14.01,2013-03-04 19:30:00,
2013-03-04 14:35:00,30.3,20.3,29.96,WNW,285,4.0,11.0,66,0.01,,---,0.01,VWS V14.01,2013-03-04 19:35:00,
2013-03-04 14:40:00,30.4,20.4,29.96,WSW,255,7.0,11.0,66,0.01,,---,0.01,VWS V14.01,2013-03-04 19:40:00,
2013-03-04 14:45:00,30.8,21.1,29.96,NW,314,3.0,11.0,67,0.01,,---,0.01,VWS V14.01,2013-03-04 19:45:00,
2013-03-04 14:50:00,30.8,20.4,29.96,WSW,252,1.0,11.0,65,0.01,,---,0.01,VWS V14.01,2013-03-04 19:50:00,
2013-03-04 14:55:00,31.2,21.2,29.96,West,272,2.0,2.0,66,0.00,,---,0.01,VWS V14.01,2013-03-04 19:55:00,
2013-03-04 15:00:00,32.0,21.9,29.96,WNW,291,3.0,9.0,66,0.00,,---,0.01,VWS V14.01,2013-03-04 20:00:00,
2013-03-04 15:05:00,32.3,21.9,29.95,NNW,338,3.0,9.0,65,0.00,,---,0.01,VWS V14.01,2013-03-04 20:05:00,
2013-03-04 15:10:00,32.3,21.9,29.95,NW,320,1.0,12.0,65,0.00,,---,0.01,VWS V14.01,2013-03-04 20:10:00,
2013-03-04 15:15:00,32.2,21.0,29.95,WSW,248,8.0,12.0,63,0.00,,---,0.01,VWS V14.01,2013-03-04 20:15:00,
2013-03-04 15:20:00,32.1,21.3,29.95,WNW,294,1.0,12.0,64,0.00,,---,0.01,VWS V14.01,2013-03-04 20:20:00,
2013-03-04 15:25:00,32.1,21.7,29.95,West,270,2.0,3.0,65,0.00,,---,0.01,VWS V14.01,2013-03-04 20:25:00,
2013-03-04 15:30:00,32.4,21.6,29.95,NW,326,0.0,7.0,64,0.00,,---,0.01,VWS V14.01,2013-03-04 20:30:00,
2013-03-04 15:35:00,32.0,21.2,29.95,NW,315,0.0,9.0,64,0.00,,---,0.01,VWS V14.01,2013-03-04 20:35:00,
2013-03-04 15:40:00,32.2,21.8,29.96,West,281,3.0,9.0,65,0.00,,---,0.01,VWS V14.01,2013-03-04 20:40:00,
2013-03-04 15:45:00,31.9,21.5,29.95,WNW,292,2.0,11.0,65,0.00,,---,0.01,VWS V14.01,2013-03-04 20:45:00,
2013-03-04 15:50:00,31.8,21.4,29.96,WSW,239,4.0,11.0,65,0.00,,---,0.01,VWS V14.01,2013-03-04 20:50:00,
2013-03-04 15:55:00,31.7,21.3,29.96,NNW,345,5.0,5.0,65,0.00,,---,0.01,VWS V14.01,2013-03-04 20:55:00,
2013-03-04 16:00:00,31.4,21.0,29.96,NNW,333,5.0,11.0,65,0.00,,---,0.01,VWS V14.01,2013-03-04 21:00:00,
2013-03-04 16:05:00,31.2,20.8,29.96,WSW,247,8.0,12.0,65,0.00,,---,0.01,VWS V14.01,2013-03-04 21:05:00,
2013-03-04 16:10:00,31.1,21.4,29.97,WNW,303,0.0,12.0,67,0.00,,---,0.01,VWS V14.01,2013-03-04 21:10:00,
2013-03-04 16:15:00,31.0,21.0,29.97,WNW,286,2.0,12.0,66,0.00,,---,0.01,VWS V14.01,2013-03-04 21:15:00,
2013-03-04 16:20:00,30.9,21.2,29.96,West,267,3.0,12.0,67,0.00,,---,0.01,VWS V14.01,2013-03-04 21:20:00,
2013-03-04 16:25:00,30.8,21.1,29.96,WNW,301,9.0,11.0,67,0.00,,---,0.01,VWS V14.01,2013-03-04 21:25:00,
2013-03-04 16:30:00,30.6,21.3,29.96,NW,309,3.0,16.0,68,0.00,,---,0.01,VWS V14.01,2013-03-04 21:30:00,
2013-03-04 16:35:00,30.6,21.3,29.97,West,272,3.0,16.0,68,0.00,,---,0.01,VWS V14.01,2013-03-04 21:35:00,
2013-03-04 16:40:00,30.5,21.2,29.97,NNW,331,3.0,16.0,68,0.00,,---,0.01,VWS V14.01,2013-03-04 21:40:00,
2013-03-04 16:45:00,30.5,21.2,29.97,NW,307,3.0,16.0,68,0.00,,---,0.01,VWS V14.01,2013-03-04 21:45:00,
2013-03-04 16:50:00,30.5,21.6,29.97,NNW,331,5.0,16.0,69,0.00,,---,0.01,VWS V14.01,2013-03-04 21:50:00,
2013-03-04 16:55:00,30.4,21.5,29.97,WSW,250,2.0,3.0,69,0.00,,---,0.01,VWS V14.01,2013-03-04 21:55:00,
2013-03-04 17:00:00,30.4,21.5,29.97,WSW,258,3.0,9.0,69,0.00,,---,0.01,VWS V14.01,2013-03-04 22:00:00,
2013-03-04 17:05:00,30.3,21.4,29.97,West,273,4.0,14.0,69,0.00,,---,0.01,VWS V14.01,2013-03-04 22:05:00,
2013-03-04 17:10:00,30.2,21.3,29.97,NW,306,4.0,14.0,69,0.00,,---,0.01,VWS V14.01,2013-03-04 22:10:00,
2013-03-04 17:15:00,30.2,21.6,29.97,NW,317,4.0,14.0,70,0.00,,---,0.01,VWS V14.01,2013-03-04 22:15:00,
2013-03-04 17:20:00,30.2,21.9,29.98,West,275,4.0,14.0,71,0.00,,---,0.01,VWS V14.01,2013-03-04 22:20:00,
2013-03-04 17:25:00,30.2,21.9,29.98,NW,313,3.0,6.0,71,0.00,,---,0.01,VWS V14.01,2013-03-04 22:25:00,
2013-03-04 17:30:00,30.2,21.9,29.98,WNW,291,12.0,12.0,71,0.00,,---,0.01,VWS V14.01,2013-03-04 22:30:00,
2013-03-04 17:35:00,30.2,21.9,29.98,NW,313,4.0,12.0,71,0.00,,---,0.01,VWS V14.01,2013-03-04 22:35:00,
2013-03-04 17:40:00,30.2,21.9,29.98,NW,316,0.0,12.0,71,0.00,,---,0.01,VWS V14.01,2013-03-04 22:40:00,
2013-03-04 17:45:00,30.2,23.6,29.98,West,281,3.0,12.0,76,0.00,,---,0.01,VWS V14.01,2013-03-04 22:45:00,
2013-03-04 17:50:00,30.2,21.9,29.98,WNW,291,1.0,12.0,71,0.00,,---,0.01,VWS V14.01,2013-03-04 22:50:00,
2013-03-04 17:55:00,30.2,23.9,29.98,NNW,338,8.0,8.0,77,0.00,,---,0.01,VWS V14.01,2013-03-04 22:55:00,
2013-03-04 18:00:00,30.2,21.9,29.99,WNW,302,0.0,8.0,71,0.00,,---,0.01,VWS V14.01,2013-03-04 23:00:00,
2013-03-04 18:05:00,30.2,21.9,29.99,West,280,1.0,9.0,71,0.00,,---,0.01,VWS V14.01,2013-03-04 23:05:00,
2013-03-04 18:10:00,30.2,21.9,29.99,WSW,251,0.0,9.0,71,0.00,,---,0.01,VWS V14.01,2013-03-04 23:10:00,
2013-03-04 18:15:00,30.3,22.0,29.98,NW,317,1.0,9.0,71,0.00,,---,0.01,VWS V14.01,2013-03-04 23:15:00,
2013-03-04 18:20:00,30.3,22.4,29.99,NW,317,0.0,9.0,72,0.00,,---,0.01,VWS V14.01,2013-03-04 23:20:00,
2013-03-04 18:25:00,30.3,22.7,29.99,NNW,339,0.0,1.0,73,0.00,,---,0.01,VWS V14.01,2013-03-04 23:25:00,
2013-03-04 18:30:00,30.3,22.4,29.99,WNW,295,2.0,6.0,72,0.00,,---,0.01,VWS V14.01,2013-03-04 23:30:00,
2013-03-04 18:35:00,30.3,22.7,29.99,NNW,331,0.0,6.0,73,0.00,,---,0.01,VWS V14.01,2013-03-04 23:35:00,
2013-03-04 18:40:00,30.3,22.7,30.00,NNW,331,2.0,6.0,73,0.00,,---,0.01,VWS V14.01,2013-03-04 23:40:00,
2013-03-04 18:45:00,30.3,22.7,29.99,NNW,346,2.0,6.0,73,0.00,,---,0.01,VWS V14.01,2013-03-04 23:45:00,
2013-03-04 18:50:00,30.3,22.4,30.00,NW,310,0.0,6.0,72,0.00,,---,0.01,VWS V14.01,2013-03-04 23:50:00,
2013-03-04 18:55:00,30.3,22.7,30.00,NW,310,0.0,1.0,73,0.00,,---,0.01,VWS V14.01,2013-03-04 23:55:00,
2013-03-04 19:00:00,30.3,22.7,30.00,WNW,299,4.0,8.0,73,0.00,,---,0.01,VWS V14.01,2013-03-05 00:00:00,
2013-03-04 19:05:00,30.3,22.7,30.00,NW,304,2.0,8.0,73,0.00,,---,0.01,VWS V14.01,2013-03-05 00:05:00,
2013-03-04 19:10:00,30.3,22.7,30.00,WNW,288,0.0,8.0,73,0.00,,---,0.01,VWS V14.01,2013-03-05 00:10:00,
2013-03-04 19:15:00,30.3,23.0,30.00,NNW,336,0.0,8.0,74,0.00,,---,0.01,VWS V14.01,2013-03-05 00:15:00,
2013-03-04 19:20:00,30.3,23.0,30.00,WNW,285,0.0,8.0,74,0.00,,---,0.01,VWS V14.01,2013-03-05 00:20:00,
2013-03-04 19:25:00,30.3,23.0,30.00,West,272,4.0,4.0,74,0.00,,---,0.01,VWS V14.01,2013-03-05 00:25:00,
2013-03-04 19:30:00,30.4,23.1,30.00,WNW,292,0.0,7.0,74,0.00,,---,0.01,VWS V14.01,2013-03-05 00:30:00,
2013-03-04 19:35:00,30.4,23.1,30.00,WNW,297,4.0,7.0,74,0.00,,---,0.01,VWS V14.01,2013-03-05 00:35:00,
2013-03-04 19:40:00,30.4,23.1,30.00,WNW,291,0.0,7.0,74,0.00,,---,0.01,VWS V14.01,2013-03-05 00:40:00,
2013-03-04 19:45:00,30.4,23.4,30.00,WNW,297,3.0,7.0,75,0.00,,---,0.01,VWS V14.01,2013-03-05 00:45:00,
2013-03-04 19:50:00,30.4,23.4,30.01,NW,313,0.0,7.0,75,0.00,,---,0.01,VWS V14.01,2013-03-05 00:50:00,
2013-03-04 19:55:00,30.4,23.4,30.00,WNW,294,0.0,4.0,75,0.00,,---,0.01,VWS V14.01,2013-03-05 00:55:00,
2013-03-04 20:00:00,30.5,23.2,30.01,West,259,3.0,11.0,74,0.00,,---,0.01,VWS V14.01,2013-03-05 01:00:00,
2013-03-04 20:05:00,30.6,23.6,30.01,WNW,298,1.0,11.0,75,0.00,,---,0.01,VWS V14.01,2013-03-05 01:05:00,
2013-03-04 20:10:00,30.6,23.6,30.01,NNW,344,3.0,11.0,75,0.00,,---,0.01,VWS V14.01,2013-03-05 01:10:00,
2013-03-04 20:15:00,30.6,23.6,30.01,North,360,2.0,11.0,75,0.00,,---,0.01,VWS V14.01,2013-03-05 01:15:00,
2013-03-04 20:20:00,30.6,23.6,30.01,North,350,2.0,11.0,75,0.00,,---,0.01,VWS V14.01,2013-03-05 01:20:00,
2013-03-04 20:26:00,30.6,23.3,30.01,WNW,300,3.0,6.0,74,0.00,,---,0.01,VWS V14.01,2013-03-05 01:26:00,
2013-03-04 20:31:00,30.6,23.3,30.01,WNW,291,0.0,10.0,74,0.00,,---,0.01,VWS V14.01,2013-03-05 01:31:00,
2013-03-04 20:36:00,30.6,23.6,30.01,WNW,301,2.0,10.0,75,0.00,,---,0.01,VWS V14.01,2013-03-05 01:36:00,
2013-03-04 20:41:00,30.6,23.6,30.02,NW,309,3.0,10.0,75,0.00,,---,0.01,VWS V14.01,2013-03-05 01:41:00,
2013-03-04 20:46:00,30.6,23.6,30.01,NW,321,3.0,10.0,75,0.00,,---,0.01,VWS V14.01,2013-03-05 01:46:00,
2013-03-04 20:51:00,30.6,23.6,30.02,West,263,4.0,10.0,75,0.00,,---,0.01,VWS V14.01,2013-03-05 01:51:00,
2013-03-04 20:56:00,30.6,23.6,30.02,West,278,2.0,2.0,75,0.00,,---,0.01,VWS V14.01,2013-03-05 01:56:00,
2013-03-04 21:01:00,30.6,23.3,30.02,WNW,284,2.0,7.0,74,0.00,,---,0.01,VWS V14.01,2013-03-05 02:01:00,
2013-03-04 21:06:00,30.6,23.6,30.02,West,276,2.0,7.0,75,0.00,,---,0.01,VWS V14.01,2013-03-05 02:06:00,
2013-03-04 21:11:00,30.6,23.6,30.02,NNW,329,0.0,7.0,75,0.00,,---,0.01,VWS V14.01,2013-03-05 02:11:00,
2013-03-04 21:16:00,30.5,23.5,30.02,NNW,330,2.0,7.0,75,0.00,,---,0.01,VWS V14.01,2013-03-05 02:16:00,
2013-03-04 21:21:00,30.5,23.5,30.02,WNW,299,1.0,7.0,75,0.00,,---,0.01,VWS V14.01,2013-03-05 02:21:00,
2013-03-04 21:26:00,30.5,23.5,30.02,WNW,301,0.0,5.0,75,0.00,,---,0.01,VWS V14.01,2013-03-05 02:26:00,
2013-03-04 21:31:00,30.5,23.5,30.02,WNW,292,1.0,6.0,75,0.00,,---,0.01,VWS V14.01,2013-03-05 02:31:00,
2013-03-04 21:36:00,30.4,23.4,30.02,NNW,340,2.0,8.0,75,0.00,,---,0.01,VWS V14.01,2013-03-05 02:36:00,
2013-03-04 21:41:00,30.5,23.5,30.02,WNW,283,2.0,11.0,75,0.00,,---,0.01,VWS V14.01,2013-03-05 02:41:00,
2013-03-04 21:46:00,30.4,23.4,30.02,WNW,297,3.0,11.0,75,0.00,,---,0.01,VWS V14.01,2013-03-05 02:46:00,
2013-03-04 21:51:00,30.4,23.4,30.02,NW,323,4.0,11.0,75,0.00,,---,0.01,VWS V14.01,2013-03-05 02:51:00,
2013-03-04 21:56:00,30.4,23.4,30.02,NW,311,0.0,6.0,75,0.00,,---,0.01,VWS V14.01,2013-03-05 02:56:00,
2013-03-04 22:01:00,30.4,23.4,30.02,WNW,285,2.0,8.0,75,0.00,,---,0.01,VWS V14.01,2013-03-05 03:01:00,
2013-03-04 22:06:00,30.4,23.4,30.02,WNW,302,0.0,8.0,75,0.00,,---,0.01,VWS V14.01,2013-03-05 03:06:00,
2013-03-04 22:11:00,30.3,23.3,30.03,North,350,0.0,9.0,75,0.00,,---,0.01,VWS V14.01,2013-03-05 03:11:00,
2013-03-04 22:16:00,30.3,23.3,30.03,West,269,1.0,9.0,75,0.00,,---,0.01,VWS V14.01,2013-03-05 03:16:00,
2013-03-04 22:21:00,30.3,23.3,30.03,WNW,293,4.0,9.0,75,0.00,,---,0.01,VWS V14.01,2013-03-05 03:21:00,
2013-03-04 22:26:00,30.3,23.3,30.03,NW,314,0.0,4.0,75,0.00,,---,0.01,VWS V14.01,2013-03-05 03:26:00,
2013-03-04 22:31:00,30.3,23.3,30.03,West,281,5.0,5.0,75,0.00,,---,0.01,VWS V14.01,2013-03-05 03:31:00,
2013-03-04 22:36:00,30.2,23.2,30.03,NW,321,0.0,6.0,75,0.00,,---,0.01,VWS V14.01,2013-03-05 03:36:00,
2013-03-04 22:41:00,30.2,23.2,30.03,WNW,298,1.0,6.0,75,0.00,,---,0.01,VWS V14.01,2013-03-05 03:41:00,
2013-03-04 22:46:00,30.2,23.6,30.03,North,360,3.0,6.0,76,0.00,,---,0.01,VWS V14.01,2013-03-05 03:46:00,
2013-03-04 22:51:00,30.2,23.6,30.03,North,350,4.0,7.0,76,0.00,,---,0.01,VWS V14.01,2013-03-05 03:51:00,
2013-03-04 22:56:00,30.2,23.6,30.03,NW,318,0.0,5.0,76,0.00,,---,0.01,VWS V14.01,2013-03-05 03:56:00,
2013-03-04 23:01:00,30.1,23.5,30.03,North,360,2.0,5.0,76,0.00,,---,0.01,VWS V14.01,2013-03-05 04:01:00,
2013-03-04 23:06:00,30.1,23.5,30.03,NNW,331,0.0,6.0,76,0.00,,---,0.01,VWS V14.01,2013-03-05 04:06:00,
2013-03-04 23:11:00,30.1,23.8,30.03,NW,322,4.0,6.0,77,0.00,,---,0.01,VWS V14.01,2013-03-05 04:11:00,
2013-03-04 23:16:00,30.0,23.4,30.03,NW,323,1.0,6.0,76,0.00,,---,0.01,VWS V14.01,2013-03-05 04:16:00,
2013-03-04 23:21:00,29.9,23.3,30.03,NW,321,0.0,7.0,76,0.00,,---,0.01,VWS V14.01,2013-03-05 04:21:00,
2013-03-04 23:26:00,29.8,23.2,30.03,NNW,342,2.0,8.0,76,0.00,,---,0.01,VWS V14.01,2013-03-05 04:26:00,
2013-03-04 23:31:00,29.7,23.1,30.03,NNE,29,1.0,8.0,76,0.00,,---,0.01,VWS V14.01,2013-03-05 04:31:00,
2013-03-04 23:36:00,29.7,23.1,30.03,NNW,331,4.0,8.0,76,0.00,,---,0.01,VWS V14.01,2013-03-05 04:36:00,
2013-03-04 23:41:00,29.6,23.0,30.03,NNW,333,3.0,8.0,76,0.00,,---,0.01,VWS V14.01,2013-03-05 04:41:00,
2013-03-04 23:46:00,29.5,22.9,30.03,North,355,3.0,8.0,76,0.00,,---,0.01,VWS V14.01,2013-03-05 04:46:00,
2013-03-04 23:51:00,29.4,22.8,30.03,NW,319,0.0,8.0,76,0.00,,---,0.01,VWS V14.01,2013-03-05 04:51:00,
2013-03-04 23:56:00,29.3,22.7,30.03,NNW,335,2.0,7.0,76,0.00,,---,0.00,VWS V14.01,2013-03-05 04:56:00,